When you browse on this site, cookies collect data to enhance your experience and personalize the content and advertising you see.
Visit our Privacy Policy to learn more. By continuing to use the site, you agree to this use of cookies and data.
  • In Spain
  • List of Countries
  • For 7 days
  • Water Temperature
  • Satellite Maps
  • Weather Map
  • Weather Widgets
  • user-avatar
    Login

    Hourly Weather Kruzhylivka

    Today, 19 June, Wednesday

    Time Temperature Precipitation Wind Pressure Humidity
    00:00 +19°C° 0 mm 0 mps 753 mmHg 71%
    01:00 +19°C° 0 mm 0 mps 753 mmHg 72%
    02:00 +19°C° 0 mm 0 mps 753 mmHg 73%
    03:00 +18°C° 0 mm 0 mps 753 mmHg 74%
    04:00 +19°C° 0 mm 0 mps 753 mmHg 72%
    05:00 +20°C° 0 mm 0 mps 753 mmHg 71%
    06:00 +21°C° 0 mm 0 mps 753 mmHg 69%
    07:00 +23°C° 0 mm 0 mps 753 mmHg 64%
    08:00 +24°C° 0 mm 0 mps 753 mmHg 59%
    09:00 +28°C° 0 mm 1 mps 753 mmHg 54%
    10:00 +29°C° 0 mm 1 mps 753 mmHg 51%
    11:00 +28°C° 0 mm 0 mps 753 mmHg 48%
    12:00 +29°C° 0 mm 0 mps 753 mmHg 46%
    13:00 +31°C° 0 mm 1 mps 753 mmHg 47%
    14:00 +31°C° 0 mm 1 mps 753 mmHg 48%
    15:00 +30°C° 0 mm 2 mps 753 mmHg 49%
    16:00 +30°C° 0 mm 2 mps 752 mmHg 51%
    17:00 +29°C° 0 mm 2 mps 752 mmHg 54%
    18:00 +29°C° 0 mm 2 mps 752 mmHg 57%
    19:00 +27°C° 0.2 mm 2 mps 752 mmHg 64%
    20:00 +25°C° 0.2 mm 3 mps 753 mmHg 71%
    21:00 +23°C° 0.2 mm 4 mps 753 mmHg 78%
    22:00 +22°C° 0 mm 3 mps 753 mmHg 80%
    23:00 +21°C° 0 mm 3 mps 753 mmHg 82%

    Tomorrow, 20 June, Thursday

    Time Temperature Precipitation Wind Pressure Humidity
    00:00 +21°C° 0 mm 3 mps 753 mmHg 84%
    01:00 +20°C° 0 mm 3 mps 753 mmHg 85%
    02:00 +20°C° 0 mm 3 mps 753 mmHg 85%
    03:00 +19°C° 0 mm 3 mps 753 mmHg 86%
    04:00 +20°C° 0 mm 3 mps 754 mmHg 83%
    05:00 +20°C° 0 mm 4 mps 754 mmHg 81%
    06:00 +20°C° 0 mm 4 mps 754 mmHg 78%
    07:00 +22°C° 0 mm 4 mps 754 mmHg 72%
    08:00 +25°C° 0 mm 4 mps 754 mmHg 66%
    09:00 +27°C° 0 mm 5 mps 754 mmHg 59%
    10:00 +28°C° 0 mm 5 mps 754 mmHg 54%
    11:00 +29°C° 0 mm 5 mps 754 mmHg 49%
    12:00 +30°C° 0 mm 5 mps 754 mmHg 43%
    13:00 +30°C° 0 mm 5 mps 754 mmHg 42%
    14:00 +32°C° 0 mm 5 mps 754 mmHg 41%
    15:00 +32°C° 0 mm 5 mps 754 mmHg 40%
    16:00 +30°C° 0 mm 5 mps 753 mmHg 44%
    17:00 +30°C° 0 mm 5 mps 753 mmHg 47%
    18:00 +29°C° 0 mm 5 mps 753 mmHg 51%
    19:00 +28°C° 0 mm 4 mps 754 mmHg 56%
    20:00 +26°C° 0 mm 4 mps 754 mmHg 61%
    21:00 +23°C° 0 mm 4 mps 754 mmHg 66%
    22:00 +22°C° 0 mm 3 mps 754 mmHg 67%
    23:00 +22°C° 0 mm 3 mps 754 mmHg 68%

    Day after tomorrow, 21 June, Friday

    Time Temperature Precipitation Wind Pressure Humidity
    00:00 +21°C° 0 mm 3 mps 754 mmHg 69%
    01:00 +21°C° 0 mm 3 mps 754 mmHg 71%
    02:00 +20°C° 0 mm 3 mps 754 mmHg 72%
    03:00 +20°C° 0 mm 3 mps 755 mmHg 74%
    04:00 +20°C° 0 mm 3 mps 755 mmHg 73%
    05:00 +20°C° 0 mm 4 mps 755 mmHg 72%
    06:00 +21°C° 0 mm 4 mps 755 mmHg 72%
    07:00 +23°C° 0 mm 4 mps 755 mmHg 66%
    08:00 +26°C° 0 mm 5 mps 755 mmHg 60%
    09:00 +28°C° 0 mm 5 mps 756 mmHg 54%
    10:00 +29°C° 0 mm 5 mps 756 mmHg 51%
    11:00 +30°C° 0 mm 5 mps 756 mmHg 47%
    12:00 +32°C° 0 mm 5 mps 756 mmHg 44%
    13:00 +32°C° 0 mm 5 mps 755 mmHg 43%
    14:00 +32°C° 0 mm 5 mps 755 mmHg 43%
    15:00 +33°C° 0 mm 5 mps 755 mmHg 42%
    16:00 +32°C° 0 mm 5 mps 755 mmHg 44%
    17:00 +32°C° 0 mm 4 mps 755 mmHg 46%
    18:00 +30°C° 0 mm 4 mps 755 mmHg 48%
    19:00 +28°C° 0 mm 4 mps 755 mmHg 52%
    20:00 +27°C° 0 mm 4 mps 755 mmHg 56%
    21:00 +25°C° 0 mm 3 mps 755 mmHg 60%
    22:00 +24°C° 0 mm 3 mps 755 mmHg 62%
    23:00 +22°C° 0 mm 3 mps 756 mmHg 65%

    22 June, Saturday

    Time Temperature Precipitation Wind Pressure Humidity
    00:00 +21°C° 0 mm 3 mps 756 mmHg 67%
    01:00 +21°C° 0 mm 3 mps 756 mmHg 67%
    02:00 +21°C° 0 mm 3 mps 756 mmHg 68%
    03:00 +20°C° 0 mm 3 mps 756 mmHg 68%
    04:00 +20°C° 0 mm 3 mps 756 mmHg 72%
    05:00 +21°C° 0 mm 3 mps 756 mmHg 71%
    06:00 +21°C° 0 mm 3 mps 756 mmHg 70%
    07:00 +23°C° 0 mm 4 mps 756 mmHg 63%
    08:00 +26°C° 0 mm 4 mps 756 mmHg 56%
    09:00 +29°C° 0 mm 5 mps 756 mmHg 48%
    10:00 +30°C° 0 mm 5 mps 756 mmHg 44%
    11:00 +32°C° 0 mm 5 mps 756 mmHg 40%
    12:00 +33°C° 0 mm 5 mps 756 mmHg 36%
    13:00 +34°C° 0 mm 4 mps 756 mmHg 35%
    14:00 +34°C° 0 mm 4 mps 756 mmHg 34%
    15:00 +34°C° 0 mm 4 mps 756 mmHg 34%
    16:00 +34°C° 0 mm 4 mps 755 mmHg 37%
    17:00 +33°C° 0 mm 4 mps 755 mmHg 40%
    18:00 +33°C° 0 mm 4 mps 755 mmHg 44%
    19:00 +30°C° 0 mm 4 mps 755 mmHg 48%
    20:00 +28°C° 0 mm 4 mps 755 mmHg 51%
    21:00 +26°C° 0 mm 3 mps 755 mmHg 55%
    22:00 +25°C° 0 mm 3 mps 755 mmHg 56%
    23:00 +24°C° 0 mm 3 mps 755 mmHg 57%

    23 June, Sunday

    Time Temperature Precipitation Wind Pressure Humidity
    00:00 +24°C° 0 mm 3 mps 755 mmHg 58%
    01:00 +22°C° 0 mm 3 mps 756 mmHg 58%
    02:00 +22°C° 0 mm 3 mps 756 mmHg 57%
    03:00 +21°C° 0 mm 4 mps 756 mmHg 57%
    04:00 +21°C° 0 mm 4 mps 756 mmHg 57%
    05:00 +22°C° 0 mm 4 mps 756 mmHg 58%
    06:00 +22°C° 0 mm 4 mps 756 mmHg 59%
    07:00 +25°C° 0 mm 5 mps 756 mmHg 54%
    08:00 +27°C° 0 mm 5 mps 756 mmHg 50%
    09:00 +29°C° 0 mm 5 mps 756 mmHg 45%
    10:00 +32°C° 0 mm 5 mps 756 mmHg 41%
    11:00 +33°C° 0 mm 5 mps 756 mmHg 36%
    12:00 +35°C° 0 mm 5 mps 756 mmHg 32%
    13:00 +35°C° 0 mm 5 mps 756 mmHg 32%
    14:00 +36°C° 0 mm 5 mps 756 mmHg 31%
    15:00 +36°C° 0 mm 5 mps 755 mmHg 31%
    16:00 +35°C° 0 mm 4 mps 755 mmHg 34%
    17:00 +34°C° 0 mm 4 mps 755 mmHg 38%
    18:00 +34°C° 0 mm 3 mps 755 mmHg 41%
    19:00 +30°C° 0 mm 3 mps 755 mmHg 44%
    20:00 +28°C° 0 mm 3 mps 755 mmHg 47%
    21:00 +26°C° 0 mm 3 mps 755 mmHg 50%
    22:00 +26°C° 0 mm 3 mps 755 mmHg 51%
    23:00 +25°C° 0 mm 3 mps 755 mmHg 52%

    24 June, Monday

    Time Temperature Precipitation Wind Pressure Humidity
    00:00 +24°C° 0 mm 3 mps 755 mmHg 52%
    01:00 +24°C° 0 mm 3 mps 755 mmHg 54%
    02:00 +22°C° 0 mm 3 mps 755 mmHg 55%
    03:00 +22°C° 0 mm 3 mps 755 mmHg 57%
    04:00 +22°C° 0 mm 3 mps 755 mmHg 58%
    05:00 +22°C° 0 mm 3 mps 755 mmHg 60%
    06:00 +22°C° 0 mm 3 mps 755 mmHg 61%
    07:00 +25°C° 0 mm 3 mps 755 mmHg 58%
    08:00 +27°C° 0 mm 4 mps 755 mmHg 54%
    09:00 +29°C° 0 mm 4 mps 756 mmHg 51%
    10:00 +30°C° 0 mm 4 mps 755 mmHg 48%
    11:00 +32°C° 0 mm 4 mps 755 mmHg 44%
    12:00 +33°C° 0 mm 3 mps 755 mmHg 41%
    13:00 +31°C° 0 mm 3 mps 755 mmHg 42%
    14:00 +30°C° 0 mm 3 mps 755 mmHg 43%
    15:00 +29°C° 0 mm 3 mps 755 mmHg 45%
    16:00 +28°C° 0 mm 3 mps 754 mmHg 47%
    17:00 +27°C° 0 mm 3 mps 754 mmHg 49%
    18:00 +26°C° 0 mm 3 mps 754 mmHg 52%
    19:00 +25°C° 0 mm 3 mps 754 mmHg 53%
    20:00 +25°C° 0 mm 3 mps 754 mmHg 55%
    21:00 +24°C° 0 mm 3 mps 754 mmHg 57%
    22:00 +23°C° 0 mm 4 mps 754 mmHg 58%
    23:00 +23°C° 0 mm 4 mps 754 mmHg 60%
    Show more